sat.trackr.live / text

‹ back to catalog

ONEWEB-0652

NORAD 55814 · 2023-029U

PAYLOAD ACTIVE UNKNOWN

§ Identity

Operator
Country
UK
Launch date
2023-03-09
Launch site
AFETR
Launch vehicle
Mass (kg)
RCS (m²)

Purposes: comms

External: N2YO · Heavens-Above · Gunter

§ Orbital elements

Epoch: 2026-05-25T02:32:20.264640Z

Period
109.55 min
Inclination
87.8935°
Eccentricity
0.0001937
Mean motion
13.14504191 rev/d
Perigee alt
1,204.3 km
Apogee alt
1,207.3 km
Semi-major
7,583.9 km
B*
3.7581e-4
RAAN
294.3148°
Arg perigee
100.3179°
Mean anomaly
259.8170°
Rev number
15,633

§ Raw data

ONEWEB-06521 55814U 23029U   26145.10579010  .00000152  00000+0  37581-3 0  99942 55814  87.8935 294.3148 0001937 100.3179 259.8170 13.14504191156336

JSON: /api/v1/satellites/55814 · /tle

For live sub-satellite position, see the globe view (requires WebGL).

§ Visibility from observer

Set your observer location to see the next 7 days of passes ≥ 10°. The values pass through the URL so the page stays shareable.

No JS? Fill the form by hand. The geolocation button needs JavaScript.